Location: Unspecified
(0.0000°N, 0.0000°E)
Time: 07:36:58
(UTC+00:00)

Transit 4A - Pass Details

Date: 19 December 2018
Orbit: 862 x 983 km, 66.8° (Epoch: 16 June)

Event Time Altitude Azimuth Distance (km) Brightness Sun altitude
Rises 11:57:00 0° 2° (N) 3,600 10.7 66.6°
Reaches altitude 10° 11:59:55 10° 14° (NNE) 2,676 10.2 66.6°
Maximum altitude 12:05:06 27° 71° (ENE) 1,758 9.6 66.5°
Drops below altitude 10° 12:10:22 10° 127° (SE) 2,727 10.7 66.4°
Sets 12:13:20 0° 138° (SE) 3,682 11.2 66.3°
